DELTA 1 DEB

Satellite information

Favourite Embed

Satellite Type and Status

DEBRISIN ORBIT

Key statistics

Satellite DELTA 1 DEB at a glance.

Uptime

21863

Days in orbit

Revolutions

≈ 14.5

Per day

Orbit

SSO

Sun Synchronous Orbit

Inclination

98.0

Latest

Satellite identification and parameters

Extended collection of information and parameters for DELTA 1 DEB.

Object identification

Identified? True

Debris? True

Object name: DELTA 1 DEB

International designator: 1966-008D

Object number (NORAD): 2118

Object ID (CCSDS): 2118

Country: UNITED STATES OF AMERICA (US)

Current information (Y/N): Y

RCS size: SMALL

Orbital parameters

Period: 99.543 minutes

Inclination: 98.0321 deg

SMA: 7114.886 km

Apoapsis: 827.531 km

Periapsis: 645.97 km

RAAN: 121.5748 deg

Eccentricy: 0.01275923

Argument of periapsis: 79.7904 deg

Mean anomaly: 281.765 deg

Mean motion: 14.46608006 rev/day

Mean motion (dot): 0.00000977 rev/day2

B* drag term: 0.00025602901 1/REarth

Two-line elements (TLE)

Creation date: Dec. 11, 2025, 10:54 a.m.

Reference frame: TEME

Reference center: EARTH

Epoch: Dec. 11, 2025, 2:58 a.m. UTC

TLE line 0: 0 DELTA 1 DEB

TLE line 1: 1 02118U 66008D 25345.12389740 .00000977 00000-0 25603-3 0 9997

TLE line 2: 2 02118 98.0321 121.5748 0127592 79.7904 281.7650 14.46608006108639

Live tracking on map

Real-time ground track for satellite DELTA 1 DEB.

In-orbit conjunctions

A list of the most updated potential collisions computed for object DELTA 1 DEB.

Target Orbit TCA Probability of collision Miss distance Type
AAU CUBESAT SSO 2025-02-22 12:47:52 0.00161062 286.0 (m) PAYLOAD
SL-8 DEB * LEO 2025-01-04 07:46:04 0.0001541969 32.0 (m) DEBRIS
CZ-6A DEB LEO 2024-12-07 16:09:42 0.000181548 595.0 (m) DEBRIS
SL-12 R/B(AUX MOTOR) LEO 2024-08-12 05:53:37 0.0001523319 711.0 (m) ROCKET BODY

Associated space launch

The ESSA series was the second generation of US meterological satellites after the TIROS (Television & Infra-Red Observation Satellite) series. They were also called OT (Operational TIROS), TOS (TIROS Operational Satellite).

DELTA 1 DEB was lifted into orbit during the mission ‘Thor Delta C | ESSA 1’, on board a Thor Delta C space rocket.

The launch took place on Feb. 3, 1966, 7:41 a.m. from Space Launch Complex 17A.

For more information about the launch, click the button.

Launch to space Thor Delta C | ESSA 1
Thor Delta C | ESSA 1

Agency: N/A

Status: Launch Successful

Launch date: Feb. 3, 1966, 7:41 a.m. UTC

Rocket: Thor Delta C

Launch pad: Space Launch Complex 17A

Location: Cape Canaveral SFS, FL, USA

...

Latest news about this satellite

There are no fresh news available about this satellite. Check back as we update our databases every day.


Newsletter sign-up

Weekly statistics, charts and insights to help you stay on top of the space industry.